• MPC Preparation (Info)

  • MPEC 2015-K98 : 2015 KV120

    The following Minor Planet Electronic Circular may be linked-to from your own Web pages, but must not otherwise be redistributed electronically.

    A form allowing access to any MPEC is at the bottom of this page.


    Read MPEC 2015-K97 Read MPEC 2015-K99


    M.P.E.C. 2015-K98                                Issued 2015 May 25, 21:45 UT
    
         The Minor Planet Electronic Circulars contain information on unusual
             minor planets and routine data on comets.  They are published
       on behalf of Commission 20 of the International Astronomical Union by the
              Minor Planet Center, Smithsonian Astrophysical Observatory,
                              Cambridge, MA 02138, U.S.A.
    
                 Prepared using the Tamkin Foundation Computer Network
    
                                  MPC@CFA.HARVARD.EDU
                URL https://www.minorplanetcenter.net/    ISSN 1523-6714
    
                                      2015 KV120
    
    Observations:
         K15KC0V* C2015 05 23.31716 17 00 56.17 +13 03 49.5          20.9 VqEK098G96
         K15KC0V  C2015 05 23.32332 17 00 59.27 +13 04 11.7          20.5 VqEK098G96
         K15KC0V  C2015 05 23.32948 17 01 02.33 +13 04 34.5          21.7 VqEK098G96
         K15KC0V  C2015 05 23.33565 17 01 05.43 +13 04 57.2          21.3 VqEK098G96
         K15KC0V  C2015 05 23.42154 17 01 48.50 +13 10 09.8          21.1 VqEK098G96
         K15KC0V  C2015 05 23.42204 17 01 48.76 +13 10 11.8          22.2 VqEK098G96
         K15KC0V  C2015 05 23.42254 17 01 49.04 +13 10 13.4          21.6 VqEK098G96
         K15KC0V  C2015 05 23.42303 17 01 49.20 +13 10 15.7          21.1 VqEK098G96
         K15KC0V  C2015 05 24.31225 17 10 06.22 +14 04 53.7          20.3 VqEK098G96
         K15KC0V  C2015 05 24.31381 17 10 06.99 +14 04 58.7          21.3 VqEK098G96
         K15KC0V  C2015 05 24.31537 17 10 07.83 +14 05 04.5          21.9 VqEK098G96
         K15KC0V  C2015 05 24.31696 17 10 08.67 +14 05 10.1          21.4 VqEK098G96
         K15KC0V  C2015 05 24.31715 17 10 08.82 +14 05 12.9          21.4 RoEK098926
         K15KC0V  C2015 05 24.32318 17 10 12.00 +14 05 35.9          21.7 RoEK098926
         K15KC0V  C2015 05 24.32921 17 10 15.23 +14 05 57.9          21.6 RoEK098926
         K15KC0V  C2015 05 25.31412 17 19 51.81 +15 06 56.9          21.3 VqEK098G96
         K15KC0V  C2015 05 25.31646 17 19 53.15 +15 07 06.0          21.4 VqEK098G96
         K15KC0V  C2015 05 25.31880 17 19 54.42 +15 07 14.6          21.1 VqEK098G96
         K15KC0V  C2015 05 25.32116 17 19 55.79 +15 07 24.0          21.4 VqEK098G96
    
    Observer details:
    926 Tenagra II Observatory.  Observers M. Schwartz, P. R. Holvorcem.  Measurer
        M. Schwartz.  0.81-m f/7 Ritchey-Chretien + CCD.
    G96 Mt. Lemmon Survey.  Observers R. G. Matheny, R. E. Hill.  Measurers
        E. J. Christensen, D. C. Fuls, A. R. Gibbs, A. D. Grauer, R. E. Hill,
        J. A. Johnson, R. A. Kowalski, S. M. Larson, R. G. Matheny, F. C. Shelly.
        1.5-m reflector + CCD.
    
    Orbital elements:
    2015 KV120                                               Earth MOID = 0.0537 AU
    Epoch 2015 June 27.0 TT = JDT 2457200.5                 MPC
    M   2.98150              (2000.0)            P               Q
    n   0.39633728     Peri.   98.52286     +0.03239440     +0.99945923
    a   1.8355213      Node   173.32576     -0.93504160     +0.03229992
    e   0.4342794      Incl.    2.78296     -0.35305498     +0.00616084
    P   2.49           H   25.2           G   0.15           U   8
    Residuals in seconds of arc
    150523 G96  0.2-  0.1+    150523 G96  0.8-  0.5+    150524 926  0.4+  0.1-
    150523 G96  0.2+  0.4-    150524 G96  0.4+  0.7+    150525 G96  0.1-  0.3-
    150523 G96  0.1-  0.2-    150524 G96  0.4-  0.1-    150525 G96  0.3+  0.0
    150523 G96  0.2+  0.2-    150524 G96  0.2-  0.1-    150525 G96  0.4-  0.2-
    150523 G96  0.0   0.0     150524 G96  0.3-  0.5-    150525 G96  0.3+  0.3+
    150523 G96  0.1+  0.2+    150524 926  0.1+  0.1-
    150523 G96  0.5+  0.0     150524 926  0.1-  0.3+
    
    Ephemeris:
    2015 KV120               a,e,i = 1.84, 0.43, 3                   q = 1.0384
    Date    TT    R. A. (2000) Decl.     Delta      r     Elong.  Phase     V
    2015 04 25    14 58 31.0 -05 02 36   0.1980  1.1984   165.3    12.3    22.8
    ...
    2015 05 10    15 39 31.0 +01 58 55   0.1268  1.1288   158.9    18.8    21.9
    ...
    2015 05 18    16 20 16.0 +08 00 15   0.09832 1.0981   150.6    26.9    21.6
    ...
    2015 05 24    17 07 08.3 +13 46 10   0.08252 1.0787   142.0    35.3    21.4
    2015 05 25    17 16 42.6 +14 47 58   0.08046 1.0759   140.3    37.0    21.4
    2015 05 26    17 26 49.2 +15 50 03   0.07858 1.0731   138.5    38.7    21.4
    ...
    2015 06 01    18 38 01.2 +21 36 02   0.07152 1.0584   126.9    50.0    21.5
    ...
    2015 06 09    20 24 27.3 +25 26 36   0.07396 1.0449   111.9    64.3    21.9
    ...
    2015 06 24    22 38 10.8 +22 10 42   0.1032  1.0396   100.2    74.2    22.9
    
    A. U. Tomatic                (C) Copyright 2015 MPC           M.P.E.C. 2015-K98
    

    Read MPEC 2015-K97 Read MPEC 2015-K99


    MPEC number:

    Enter an MPEC number in one of the following forms:

    • 1997-B01 (the full form)
    • J97B01 (the packed version of the full form)
    • B01 (the abbreviated form)